Location: Casteau
(50.5142°N, 4.0161°E)
Time: 23:15:40
(UTC+00:00)

Transit 2A - Pass Details

Date: 05 August 2021
Orbit: 594 x 964 km, 66.7° (Epoch: 26 September)

Event Time Altitude Azimuth Distance (km) Brightness Sun altitude
Rises 15:03:17 0° 311° (NW) 3,296 9.6 38.9°
Reaches altitude 10° 15:06:25 10° 292° (WNW) 2,434 9.3 38.4°
Maximum altitude 15:09:56 17° 253° (WSW) 2,040 9.8 37.9°
Drops below altitude 10° 15:13:38 10° 214° (SW) 2,569 9.6 37.3°
Sets 15:17:06 0° 196° (SSW) 3,560 9.9 36.8°
